Regional Weather Roundup
Issued by NWS Grand Forks, ND

Home | Current Version | Previous Version | Text Only | Print | Product List | Glossary On
Versions: 1 2 3 4 5 6 7 8 9 10 11 12 13 14 15 16 17 18 19 20 21 22 23 24 25 26 27 28 29 30 31 32 33 34 35 36 37 38 39 40 41 42 43 44 45 46 47 48 49 50
000
ASUS43 KFGF 040410
RWRFGF
PRAIRIE TO PINES  WEATHER ROUNDUP
NATIONAL WEATHER SERVICE EASTERN NORTH DAKOTA/GRAND FORKS ND
1100 PM CDT TUE MAY 03 2016

 **SATELLITE DATA USED TO AUGMENT SKY COVER AT AUTOMATED STATIONS**
 *****  WEATHER ACROSS EASTERN NORTH DAKOTA  *****

CITY           SKY/WX    TMP DP  RH WIND       PRES   REMARKS
GRAND FORKS    CLEAR     47  31  53 N10       30.00R
GRAND FRKS AFB CLEAR     48  31  52 N10       30.01R
DEVILS LAKE    CLEAR     49  31  49 NE10      30.05R
FARGO          CLEAR     54  26  34 N16       29.96R
WAHPETON ARPT  CLEAR     54  28  37 N13G18    29.95R
$$

 ***** WEATHER ACROSS CENTRAL AND WESTERN NORTH DAKOTA  *****

CITY           SKY/WX    TMP DP  RH WIND       PRES   REMARKS
BISMARCK       CLEAR     52  30  43 E9        30.04R
MINOT          CLEAR     55  26  32 CALM      30.04R
JAMESTOWN      CLEAR     50  27  40 N14       30.01R
MINOT AFB      CLEAR     53  29  39 E3        30.03R
GARRISON         N/A     52  32  46 N3        30.05R
WILLISTON      CLEAR     63  38  39 NE3       30.05R
DICKINSON      CLEAR     57  37  47 NE6       30.06R
HETTINGER      CLEAR     49  37  63 VRB3      30.09R
$$

 *****  OTHER AIRPORT OBSERVATIONS IN OUR AREA  *****

CITY           SKY/WX    TMP DP  RH WIND       PRES   REMARKS
WALHALLA       FAIR      45  32  61 NW8       30.04S
GRAFTON AIRPOR FAIR      48  32  53 N9        30.04R
VALLEY CITY AR FAIR      50  32  50 N12       30.02R
CANDO          FAIR      45  28  53 NE6       30.07S
CAVALIER APRT  FAIR      50  34  53 N9        30.03S
GWINNER        FAIR      54  32  43 N14       29.98R
SHEYENNE NWR     N/A     54  30  39 N7        29.95S
ROLLA          FAIR      45  25  45 NE3       30.07R
 ***** THE ABOVE OBSERVATIONS ARE NON NWS ARE NOT QUALITY
       CONTROLLED AND MAY MIS-REPORT RAIN FOR SNOW...
$$

  *****  WEATHER ACROSS NORTHERN MINNESOTA  *****

CITY           SKY/WX    TMP DP  RH WIND       PRES   REMARKS
FLAG ISLAND    CLEAR     52  36  54 N9        29.96R
WARROAD        CLEAR     46  37  71 NW8       29.98R
ROSEAU         CLEAR     48  37  66 N10       29.98R
HALLOCK        CLEAR     46  30  53 N8        30.01R
THF RVR FALLS  CLEAR     48  34  57 NW12      29.99R
BAUDETTE       CLEAR     46  33  60 N7        29.95R
WASKISH        CLEAR     46  36  66 N6        29.94S
CROOKSTON      CLEAR     50  32  50 N14       29.99R
STEPHEN NDAWN    N/A     45  28  53 N7          N/A
GREENBUSH NDAW   N/A     45  37  76 N6          N/A
$$
  *****  WEATHER ACROSS CENTRAL AND WEST MINNESOTA  *****

CITY           SKY/WX    TMP DP  RH WIND       PRES   REMARKS
FOSSTON        CLEAR     45  30  57 NW9       29.97R
BEMIDJI        CLEAR     50  33  52 N7        29.93R
PARK RAPIDS    CLEAR     54  31  41 N13       29.91R
ELBOW LAKE     FAIR      54  33  45 NW10      29.92R
WADENA         CLEAR     50  30  46 N7        29.90R
DETROIT LAKES  CLEAR     52  34  50 N10       29.95R
MOORHEAD       CLEAR     52  27  37 N14       29.97R
FERGUS FALLS   CLEAR     54  30  40 N12G17    29.91R
MORRIS MN      CLEAR     54  28  37 N14       29.89R
STAPLES        CLEAR     52  28  40 N10       29.89R
$$
  *****  WEATHER ELSEWHERE ACROSS MINNESOTA  *****

CITY           SKY/WX    TMP DP  RH WIND       PRES   REMARKS
DULUTH         CLEAR     49  31  49 N14       29.85R
INTRNTL FALLS  CLEAR     35  31  85 CALM      29.93R
ELY            CLEAR     45  30  57 N3        29.87S
CLOQUET        CLEAR     52  28  40 N10G17    29.86R
WHEATON        CLEAR     54  30  40 NW10      29.95R
BRAINERD       CLEAR     55  32  41 N15       29.87
HIBBING        CLEAR     45  30  55 N8        29.89R
ALEXANDRIA     CLEAR     54  30  40 N14       29.90R
SAINT CLOUD    PTCLDY    54  29  38 N8        29.83R
MINNEAPOLIS    CLEAR     60  28  29 N14       29.78R
$$

  *****  WEATHER ACROSS SOUTH DAKOTA  *****

CITY           SKY/WX    TMP DP  RH WIND       PRES   REMARKS
SIOUX FALLS    CLEAR     52  33  48 N9        29.90R
BROOKINGS      CLEAR     52  31  44 N10       29.91R
WATERTOWN      CLEAR     49  30  48 N10       29.94R
HURON          CLEAR     55  31  39 N12       29.95R
SISSETON         N/A     53  31  42 N14       29.94R
ABERDEEN       CLEAR     52  32  46 N9        29.99R
MITCHELL       CLEAR     54  38  54 N8        29.94R
PIERRE         CLEAR     54  41  61 N12       29.99R
MOBRIDGE       CLEAR     55  34  45 NE8       30.00R
RAPID CITY     CLEAR     53  41  63 NW12      30.10R
$$

  *****  SOME WEATHER IN NEARBY STATES *****

CITY           SKY/WX    TMP DP  RH WIND       PRES   REMARKS
GLASGOW MT     CLEAR     64  38  38 S7        30.04R
GREAT FALLS MT CLEAR     63  39  41 SE9       30.02S
CHEYENNE WY    CLEAR     46  35  65 W8        30.26R
SCOTTSBLUFF NE CLEAR     53  40  61 CALM      30.16R
OMAHA NE       MOCLDY    62  45  53 CALM      29.85F
DES MOINES IA  LGT RAIN  59  46  62 W10       29.78F
DAVENPORT IA   PTCLDY    58  43  57 SW14      29.70F
CHICAGO IL     CLOUDY    60  40  47 SW10      29.69F
EAU CLAIRE WI  CLEAR     48  46  93 N3        29.74R
LA CROSSE WI   CLOUDY    51  49  92 N5        29.70R
$$

  *****  SOME NATIONAL WEATHER *****

CITY           SKY/WX    TMP DP  RH WIND       PRES   REMARKS
LA GUARDIA NY  CLOUDY    52  51  97 SE7       29.82F
RALEIGH NC     LGT RAIN  64  63  96 SW8       29.76S FOG
ATLANTA GA     PTCLDY    62  51  67 NW8       29.85F
NEW ORLEANS LA PTCLDY    71  63  75 VRB7      29.94R
OKLAHOMA CITY  CLEAR     53  48  83 S6        30.05R
ALBUQUERQUE NM CLEAR     63  30  28 E13       30.22R
SALT LAKE CITY CLEAR     62  38  40 CALM      30.15R
LOS ANGELES CA CLOUDY    58  53  84 W9        29.95R
BOISE ID       CLEAR     69  32  25 E8        30.01R
SEATTLE WA     CLOUDY    59  52  77 NW3       30.08R
$$

*** WEATHER ACROSS MANITOBA...SASKATCHEWAN AND ONTARIO ***
                ***ONTARIO***

CITY           SKY/WX    TMP DP  RH WIND       PRES   REMARKS
GERALDTON      LGT RAIN  34  34 100 N9        29.77R FOG
THUNDER BAY    MOCLDY    43  34  70 SW6       29.80R
SIOUX LOOKOUT  PTCLDY    43  32  65 N7        29.90R
TORONTO        PTCLDY    45  37  76 CALM      29.78F
BIG TROUT LK   CLEAR     28  23  80 N8        30.00R WCI  20
PICKLE LAKE    NOT AVBL
DRYDEN         CLEAR     45  32  61 N6        29.92R
KENORA         CLEAR     46  32  57 N8        29.97R
$$
                *** MANITOBA***

CITY           SKY/WX    TMP DP  RH WIND       PRES   REMARKS
BRANDON        CLEAR     43  25  49 E6        30.05S
DAUPHIN        CLEAR     43  25  49 CALM      30.06S
ISLAND LAKE    PTCLDY    36  23  60 NE5       30.07S
PILOT MOUND      N/A     46  30  53 NE7         N/A
THE PAS        CLOUDY    48  34  57 SE6       30.02S
THOMPSON       CLEAR     41  19  42 VRB2      30.05S
WINNIPEG       CLEAR     43  34  70 NE3       30.04S
LYNN LAKE      CLOUDY    46  28  49 E6        29.98F
CHURCHILL      MOCLDY    25  19  80 SW2       30.13S
GILLAM         CLEAR     28  19  69 E2        30.11F
$$
                ***SASKATCHEWAN***

CITY           SKY/WX    TMP DP  RH WIND       PRES   REMARKS
ESTEVAN        PTCLDY    54  39  58 E7        30.04R
KINDERSLEY     PTCLDY    63  34  34 SE8       29.93S
LLOYDMINSTER   PTCLDY    66  39  37 S8        29.87S
PRINCE ALBERT  CLOUDY    61  41  48 E7        29.92S
REGINA         CLEAR     59  37  44 S12       30.02R
YORKTON        CLEAR     59  32  36 S7        30.01S
N. BATTLEFORD  CLEAR     63  39  42 SE6       29.90F
LA RONGE       NOT AVBL
SASKATOON      PTCLDY    66  41  39 SE9       29.94R
SWIFT CURRENT  CLEAR     63  39  42 S13       29.99R
$$
NOTE: THESE ARE AUTOMATED STATIONS WITH LIMITED QUALITY CONTROL
      "FAIR" INDICATES FEW OR NO CLOUDS BELOW 12,000 FEET WITH NO
      SIGNIFICANT WEATHER AND/OR OBSTRUCTIONS TO VISIBILITY.
      SKY/WX - SKY CONDITION AND SIGNIFICANT WEATHER.
      TMP - AIR TEMPERATURE.    DP   - DEWPOINT TEMPERATURE.
      RH  - RELATIVE HUMIDITY.  PRES - PRESSURE.
      HX  - HEAT INDEX.         WCI  - WIND CHILL INDEX.
$



USA.gov is the U.S. government's official web portal to all federal, state and local government web resources and services.